Home   Weather   Eindhoven   Past weeks

Flag for Netherlands Past Weather in Eindhoven, Netherlands — Yesterday and Last 2 Weeks

Now
59 °F

Mostly cloudy.


Feels Like: 60 °F
Forecast: 50 / 66 °F
Wind: 3 mph from Southwest

Location: Eindhoven Airport

Current Time: Sep 25, 2016 at 9:21:56 PM

Latest Report: Sep 25, 2016 at 8:55 PM


Visibility: N/A

Pressure: 30.12 "Hg

Humidity: 88%

Dew Point: 55 °F

Location of EindhovenLocation

Past Weather in Eindhoven — Graph

°F

Eindhoven Temperature Yesterday

Maximum temperature yesterday: 75 °F (at 2:25 PM)
Minimum temperature yesterday: 48 °F (at 12:25 AM)
Average temperature yesterday: 61 °F

High & Low Weather Summary for the Past Weeks

 TemperatureHumidityPressure
High91 °F (Sep 13, 3:25 PM)100% (Sep 12, 12:25 AM)30.30 "Hg (Sep 12, 12:25 AM)
Low45 °F (Sep 20, 7:55 AM)27% (Sep 14, 4:55 PM)29.77 "Hg (Sep 15, 2:55 PM)
Average65 °F74%30.02 "Hg
* Reported Sep 10 7:25 PM — Sep 25 7:55 PM, Eindhoven, Weather by CustomWeather, © 2016

Note: Actual official high and low records may vary slightly from our data, if they occured in-between our weather recording intervals... More about our weather records

Advertising

Eindhoven Weather History for the Previous 24 Hours

Scroll right to see more
 ConditionsComfort  
Time TempWeatherWind HumidityBarometerVisibility
7:55 PM
Sun, Sep 25
59 °FMostly cloudy.3 mph88%30.09 "HgN/A
7:25 PM59 °FCloudy.5 mph88%30.09 "HgN/A
6:55 PM59 °FPartly sunny.5 mph88%30.07 "HgN/A
6:25 PM61 °FBroken clouds.10 mph88%30.07 "HgN/A
6:02 PM63 °FSprinkles. Broken clouds.10 mph94%30.07 "HgN/A
5:55 PM63 °FRain showers. Broken clouds.17 mph88%30.07 "HgN/A
5:25 PM70 °FMore clouds than sun.16 mph64%30.01 "HgN/A
4:55 PM72 °FScattered clouds.15 mph61%30.01 "HgN/A
4:25 PM75 °FMostly cloudy.13 mph50%29.98 "HgN/A
3:55 PM79 °FScattered clouds.14 mph45%29.98 "HgN/A
3:25 PM77 °FBroken clouds.15 mph47%29.98 "HgN/A
2:55 PM77 °FPassing clouds.10 mph44%29.95 "HgN/A
2:25 PM77 °FWarm.12 mph44%29.95 "HgN/A
1:55 PM77 °FWarm.12 mph44%29.95 "HgN/A
1:25 PM75 °FMild.10 mph47%29.95 "HgN/A
12:55 PM75 °FMild.9 mph47%29.95 "HgN/A
12:25 PM73 °FMild.12 mph50%29.98 "HgN/A
11:55 AM72 °FMild.10 mph53%29.98 "HgN/A
11:25 AM70 °FMild.10 mph57%29.98 "HgN/A
10:55 AM68 °FMild.10 mph60%29.98 "HgN/A
10:25 AM64 °FMild.10 mph64%29.98 "HgN/A
9:55 AM63 °FPassing clouds.10 mph68%29.98 "HgN/A
9:25 AM61 °FCool.9 mph68%29.98 "HgN/A
8:55 AM57 °FCool.9 mph77%29.98 "HgN/A
8:25 AM55 °FCool.8 mph77%29.98 "HgN/A
7:55 AM54 °FCool.8 mph82%30.01 "HgN/A
7:25 AM54 °FCool.8 mph77%30.01 "HgN/A
6:55 AM54 °FCool.7 mph77%30.01 "HgN/A
6:25 AM54 °FCool.7 mph77%30.01 "HgN/A
5:55 AM55 °FCool.7 mph72%30.01 "HgN/A
5:25 AM55 °FCool.7 mph72%30.01 "HgN/A
4:55 AM55 °FCool.7 mph72%30.01 "HgN/A
4:25 AM55 °FCool.7 mph72%30.04 "HgN/A
3:55 AM57 °FCool.7 mph67%30.04 "HgN/A
3:25 AM57 °FCool.7 mph72%30.04 "HgN/A
2:55 AM57 °FCool.7 mph72%30.04 "HgN/A
2:25 AM57 °FPassing clouds.7 mph72%30.04 "HgN/A
1:55 AM57 °FCool.7 mph72%30.07 "HgN/A
1:25 AM57 °FPassing clouds.6 mph72%30.07 "HgN/A
12:55 AM57 °FPassing clouds.6 mph72%30.07 "HgN/A
12:25 AM59 °FPassing clouds.6 mph68%30.07 "HgN/A
11:55 PM
Sat, Sep 24
59 °FPassing clouds.6 mph68%30.07 "HgN/A
11:25 PM61 °FPassing clouds.6 mph63%30.07 "HgN/A
10:55 PM61 °FPassing clouds.5 mph68%30.09 "HgN/A
10:25 PM59 °FCool.6 mph72%30.09 "HgN/A
9:55 PM61 °FCool.6 mph68%30.09 "HgN/A
9:25 PM63 °FMild.6 mph64%30.09 "HgN/A
Weather by CustomWeather, © 2016

See weather overviewHow to use our weather pages